Back to catalog

STARLINK-36266

AliveCommunicationsSSO
NORAD 67984·PAYLOAD·🇺🇸 United States

Launched Feb 25, 2026 from Vandenberg Space Force Base

Loading…

Next Passes (next 24 hours)

TLE

FreshSource: CelesTrak SupGP

Epoch: Sep 14, 2026, 21:26 UTC

1 67984C 26038Z   26257.89354167  .00044501  00000+0  13816-2 0  2579
2 67984  97.2842 266.3876 0001567  90.3105 103.0205 15.33412417    16

Track STARLINK-36266 in real time with AllMySat

Download on the App Store